SCP
0 0 0 0 0 0 0 0 0 0 0 0 0 1 1 1 0 1 0 -0 0 1
0 0 0 0 0 0 0 0 0 0 0 0 0 0 1 1 1 1 -0 -0 0 1
0 0 0 0 0 0 0 0 0 0 0 0 0 0 0 0 0 1 1 1 0 -0
0 0 0 0 0 0 0 0 0 0 0 0 0 0 0 0 0 0 0 0 0 0
0 0 0 0 0 0 0 0 0 0 0 0 0 0 0 0 0 0 0 0 0 0
0 0 0 0 0 0 0 0 0 0 0 0 0 0 0 0 0 0 0 0 0 0
0 0 0 0 0 0 0 0 0 0 0 0 0 0 0 0 0 0 0 0 0 0
0 0 0 0 0 0 0 0 0 0 0 0 0 0 0 0 0 0 0 0 0 0
0 0 0 0 0 0 0 0 0 0 0 0 0 0 0 0 0 0 0 0 0 0
0 0 0 0 0 0 0 0 0 0 0 0 0 0 0 0 0 0 -0 0 0 0
0 0 0 0 0 0 0 0 0 0 0 0 0 0 0 0 0 0 -0 -0 -0 -0
0 0 0 0 0 0 0 0 0 0 0 0 0 0 0 0 0 0 -0 -0 -0 0
0 0 0 0 0 0 0 0 0 0 0 0 0 0 0 0 0 0 -0 -0 -0 -0
0 0 0 0 0 0 0 0 0 0 0 0 0 0 0 0 0 0 0 -0 -0 0
Wind_Speed_500mb
26 29 36 45 57 61 59 58 57 62 67 63 57 52 65 83 92 93 89 79 64 54
32 29 26 27 42 43 46 50 53 59 58 62 77 72 71 69 75 71 83 81 91 79
39 40 36 27 28 33 32 33 37 45 47 48 51 55 55 60 72 87 97 95 97 90
50 54 49 41 33 31 29 27 28 35 41 47 48 49 52 59 58 59 69 78 78 88
63 65 65 57 49 44 42 36 30 29 32 36 40 46 50 50 50 54 56 64 65 72
81 74 78 72 63 59 54 48 41 37 35 34 32 36 40 45 49 53 54 60 52 59
93 100 82 83 78 72 68 59 56 51 45 40 38 37 38 39 44 48 49 46 50 50
72 86 101 92 89 86 83 74 66 65 61 53 49 45 45 46 49 48 52 52 49 53
49 70 86 88 94 94 94 87 79 78 75 68 63 56 50 48 46 43 46 58 55 52
36 39 43 62 76 88 98 95 91 90 89 81 73 66 60 57 53 57 57 56 62 55
62 61 59 58 60 63 72 87 93 100 101 93 83 75 70 66 60 60 60 51 56 60
80 79 78 83 84 84 83 85 87 88 95 101 94 85 79 73 70 64 61 57 56 61
86 83 83 80 79 84 88 90 94 100 100 106 105 94 84 78 77 70 61 60 58 59
98 98 100 99 98 92 85 91 96 99 98 98 100 97 87 83 83 75 65 63 59 58
Wind_Direction_500mb
249 260 266 259 254 252 251 252 251 252 254 250 246 249 249 260 268 266 265 272 272 274
249 245 257 274 255 252 252 254 255 255 256 251 249 252 251 248 254 261 266 272 268 267
242 239 241 253 251 256 253 251 252 252 256 254 253 251 251 253 253 254 257 259 268 269
236 240 236 242 246 241 246 253 266 255 254 258 258 257 251 251 257 255 256 258 266 270
240 242 237 239 244 242 245 250 257 264 265 257 253 257 260 260 260 261 265 263 265 260
243 244 243 241 244 245 248 251 252 257 264 270 270 268 269 268 263 265 272 260 272 270
254 252 247 246 243 243 246 248 251 256 262 268 270 271 280 286 287 279 273 274 270 267
259 259 256 247 245 243 244 244 247 253 257 261 262 269 276 288 289 284 281 269 267 267
267 256 255 251 246 246 245 245 246 250 251 256 262 269 270 283 288 288 295 277 274 266
272 271 266 258 254 252 248 246 248 251 250 252 260 268 271 278 282 289 291 293 276 273
266 261 257 256 254 254 248 246 252 251 250 253 256 264 269 274 273 282 286 288 282 272
271 268 262 258 257 256 254 253 253 251 251 250 256 260 266 267 270 274 285 291 284 273
266 265 262 262 261 262 259 257 256 253 253 255 256 256 260 261 263 268 281 289 279 277
264 263 262 263 263 260 256 258 255 254 250 250 253 255 253 254 255 264 279 283 284 278
Wind_Speed_850mb
26 29 36 45 57 61 59 58 57 62 67 63 57 52 65 83 92 93 89 79 64 54
32 29 26 27 42 43 46 50 53 59 58 62 77 72 71 69 75 71 83 81 91 79
39 40 36 27 28 33 32 33 37 45 47 48 51 55 55 60 72 87 97 95 97 90
50 54 49 41 33 31 29 27 28 35 41 47 48 49 52 59 58 59 69 78 78 88
63 65 65 57 49 44 42 36 30 29 32 36 40 46 50 50 50 54 56 64 65 72
81 74 78 72 63 59 54 48 41 37 35 34 32 36 40 45 49 53 54 60 52 59
93 100 82 83 78 72 68 59 56 51 45 40 38 37 38 39 44 48 49 46 50 50
72 86 101 92 89 86 83 74 66 65 61 53 49 45 45 46 49 48 52 52 49 53
49 70 86 88 94 94 94 87 79 78 75 68 63 56 50 48 46 43 46 58 55 52
36 39 43 62 76 88 98 95 91 90 89 81 73 66 60 57 53 57 57 56 62 55
62 61 59 58 60 63 72 87 93 100 101 93 83 75 70 66 60 60 60 51 56 60
80 79 78 83 84 84 83 85 87 88 95 101 94 85 79 73 70 64 61 57 56 61
86 83 83 80 79 84 88 90 94 100 100 106 105 94 84 78 77 70 61 60 58 59
98 98 100 99 98 92 85 91 96 99 98 98 100 97 87 83 83 75 65 63 59 58
Wind_Direction_850mb
249 260 266 259 254 252 251 252 251 252 254 250 246 249 249 260 268 266 265 272 272 274
249 245 257 274 255 252 252 254 255 255 256 251 249 252 251 248 254 261 266 272 268 267
242 239 241 253 251 256 253 251 252 252 256 254 253 251 251 253 253 254 257 259 268 269
236 240 236 242 246 241 246 253 266 255 254 258 258 257 251 251 257 255 256 258 266 270
240 242 237 239 244 242 245 250 257 264 265 257 253 257 260 260 260 261 265 263 265 260
243 244 243 241 244 245 248 251 252 257 264 270 270 268 269 268 263 265 272 260 272 270
254 252 247 246 243 243 246 248 251 256 262 268 270 271 280 286 287 279 273 274 270 267
259 259 256 247 245 243 244 244 247 253 257 261 262 269 276 288 289 284 281 269 267 267
267 256 255 251 246 246 245 245 246 250 251 256 262 269 270 283 288 288 295 277 274 266
272 271 266 258 254 252 248 246 248 251 250 252 260 268 271 278 282 289 291 293 276 273
266 261 257 256 254 254 248 246 252 251 250 253 256 264 269 274 273 282 286 288 282 272
271 268 262 258 257 256 254 253 253 251 251 250 256 260 266 267 270 274 285 291 284 273
266 265 262 262 261 262 259 257 256 253 253 255 256 256 260 261 263 268 281 289 279 277
264 263 262 263 263 260 256 258 255 254 250 250 253 255 253 254 255 264 279 283 284 278